Regional Weather Roundup
Issued by NWS Northern Indiana

Home | Current Version | Previous Version | Graphics & Text | Print | Product List | Glossary On
Versions: 1 2 3 4 5 6 7 8 9 10 11 12 13 14 15 16 17 18 19 20 21 22 23 24 25 26 27 28 29 30 31 32 33 34 35 36 37 38 39 40 41 42 43 44 45 46 47 48 49 50
491
ASUS43 KIWX 272100
RWRIWX

KIWX WEATHER ROUNDUP
NATIONAL WEATHER SERVICE NORTHERN INDIANA
500 PM EDT FRI MAY 27 2016

NOTE: "FAIR" INDICATES FEW OR NO CLOUDS BELOW 12,000 FEET WITH NO
SIGNIFICANT WEATHER AND/OR OBSTRUCTIONS TO VISIBILITY.

* THESE STATIONS ARE NOT UNDER NWS QUALITY CONTROL. THEY ALSO MAY NOT
  REPORT WEATHER SUCH AS PRECIPITATION OR FOG.

INZ001>027-272200-
NORTHERN INDIANA

CITY           SKY/WX    TMP DP  RH WIND       PRES   REMARKS
SOUTH BEND     MOSUNNY   85  61  44 S17G25    29.89F
ELKHART*       MOSUNNY   86  66  51 S13       29.91F
GOSHEN         MOSUNNY   85  59  41 S12       29.91F
ANGOLA*          N/A     84  79  84 S9        29.94F HX  96
FORT WAYNE     CLOUDY    86  59  39 S18       29.94F
PERU/GRISSOM   CLOUDY    84  60  44 S15G29    29.91F

$$
INZ028>050-272200-
CENTRAL INDIANA

CITY           SKY/WX    TMP DP  RH WIND       PRES   REMARKS
LAFAYETTE      PTSUNNY   82  62  50 S16G24    29.88F
KOKOMO*        MOSUNNY   82  63  51 S14G23    29.92F
MUNCIE*        PTSUNNY   88  58  36 S13G21    29.94F
INDIANAPOLIS   CLOUDY    85  60  42 S16G25    29.92F

$$
MIZ043>046-050>051-056>058-064>065-071>073-077>080-272200-
SOUTHWEST LOWER MICHIGAN

CITY           SKY/WX    TMP DP  RH WIND       PRES   REMARKS
BATTLE CREEK   CLOUDY    79  63  57 S12       29.95F
BENTON HARBOR  CLOUDY    82  65  56 SE8       29.87F
COLDWATER*     PTSUNNY   82  65  57 SE6       29.95F
HILLSDALE*     CLOUDY    81  55  40 S5        29.97F
HOLLAND        PTSUNNY   80  65  59 S7        29.91F
GRAND RAPIDS   PTSUNNY   83  63  50 S8        29.92F
KALAMAZOO      MOSUNNY   82  64  54 S10       29.93F
STURGIS*       MOSUNNY   83  60  45 SW16      29.92F
THREE RIVERS*  FAIR      84  60  43 S9        29.92F

$$
OHZ001>008-015>018-024>025-272200-
NORTHWEST OHIO

CITY           SKY/WX    TMP DP  RH WIND       PRES   REMARKS
DEFIANCE       CLOUDY    86  60  41 S7        29.95F
FINDLAY        PTSUNNY   88  59  37 S14G20    29.96F
TOLEDO EXPRESS MOSUNNY   87  59  38 SW8       29.96F
TOLEDO METCALF MOSUNNY   87  62  43 S7        29.97F
LIMA           PTSUNNY   88  61  40 SW14      29.97F

$$
AND FOR LAKE MICHIGAN COASTAL AND OPEN LAKE BUOY OBSERVATIONS

STATION/POSITION TEMP    WIND        PRES    VSBY  WAVE
                 AIR SEA DIR/SP/G                  HT/PER
                 (F)     (DEG/KT/KT) (MB)    (MI)  (FT/S)
CALUMET HARBOR    83     160/  9/ 14 1009.9F
MICHIGAN CITY     83     140/ 13/ 19   N/A
BURNS HARBOR      84     180/ 13/ 20 1011.2F
SAINT JOSEPH      82     180/  5/  9 1013.2F
SOUTH LAKE BUOY   57 50  130/ 10/ 10 1011.9          1
4 MI NW BRIDGMAN  73 64  140/  8/ 12   N/A           1
MICHIGAN CITY     74 60  180/ 12/ 16   N/A           1

$$
&&




USA.gov is the U.S. government's official web portal to all federal, state and local government web resources and services.